Location: Corcelles
(46.1547°N, 4.7234°E)
Time: 08:44:15
(UTC+00:00)

ADEOS II - Pass Details

Date: 14 July 2020
Orbit: 799 x 801 km, 98.5° (Epoch: 14 August)

Event Time Altitude Azimuth Distance (km) Brightness Sun altitude
Rises 01:17:45 0° 22° (NNE) 3,321 7.0 -19.2°
Reaches altitude 10° 01:20:21 10° 33° (NNE) 2,385 5.8 -19.0°
Maximum altitude 01:25:01 31° 95° (E) 1,364 3.4 -18.7°
Enters shadow 01:28:38 15° 151° (SSE) 2,033 3.9 -18.4°
